Regional Weather Roundup
Issued by NWS

Home | Current Version | Previous Version | Text Only | Print | Product List | Glossary Off
Versions: 1 2 3 4 5 6 7 8 9 10 11 12 13 14 15 16 17 18 19 20 21 22 23 24 25 26 27 28 29 30 31 32 33 34 35 36 37 38 39 40 41 42 43 44 45 46 47 48 49 50

000
ASUS43 KLOT 010606
RWRIL

ILLINOIS REGIONAL WEATHER ROUNDUP
NATIONAL WEATHER SERVICE CHICAGO/ROMEOVILLE IL
100 AM CDT MON SEP 01 2014

NOTE: "FAIR" INDICATES FEW OR NO CLOUDS BELOW 12,000 FEET WITH NO
SIGNIFICANT WEATHER AND/OR OBSTRUCTIONS TO VISIBILITY.

* THESE STATIONS ARE NOT UNDER NWS QUALITY CONTROL. THEY ALSO MAY NOT
  REPORT WEATHER SUCH AS PRECIPITATION OR FOG.

ILZ001-002-007-009-015-016-024-010700-
NORTHWEST ILLINOIS

CITY           SKY/WX    TMP DP  RH WIND       PRES   REMARKS
MOLINE         FAIR      76  70  82 S13       29.80F
6HR MIN TEMP:  74; 6HR MAX TEMP:  82;

STERLING*      FAIR      73  70  88 SW3       29.83S
SAVANNA*       FAIR      74  69  84 S7        29.81S
$$

ILZ003-004-008-010-011-017-018-010700-
NORTH CENTRAL ILLINOIS

CITY           SKY/WX    TMP DP  RH WIND       PRES   REMARKS
ROCKFORD       MOCLDY    73  68  84 S10       29.83F
6HR MIN TEMP:  72; 6HR MAX TEMP:  80;

FREEPORT*      FAIR      73  70  91 S13       29.84S
ROCHELLE*      FAIR      71  69  92 S8        29.84F
DE KALB*       FAIR      69  67  95 S10       29.86F FOG
PERU*          FAIR      73  70  91 S12       29.85F
$$

ILZ005-006-012>014-019>023-010700-
NORTHEAST ILLINOIS

CITY           SKY/WX    TMP DP  RH WIND       PRES   REMARKS
CHICAGO-OHARE  FAIR      74  67  78 S8        29.86F
6HR MIN TEMP:  73; 6HR MAX TEMP:  82;

CHICAGO-MIDWAY FAIR      77  71  82 S8        29.88S
6HR MIN TEMP:  77; 6HR MAX TEMP:  84;

AURORA         FAIR      72  68  87 S8        29.86F FOG
6HR MIN TEMP:  72; 6HR MAX TEMP:  80;

LANSING*         N/A    N/A N/A N/A MISG        N/A
JOLIET*        FAIR      73  69  88 S7        29.88F
WAUKEGAN       FAIR      74  69  85 S12       29.84F
6HR MIN TEMP:  69; 6HR MAX TEMP:  78;

DUPAGE AIRPORT FAIR      73  70  90 S9        29.86F
6HR MIN TEMP:  72; 6HR MAX TEMP:  81;

KANKAKEE*      FAIR      71  69  95 S7        29.90F
WHEELING       FAIR      75  70  84 S7        29.87F
6HR MIN TEMP:  75; 6HR MAX TEMP:  83;

MORRIS*        FAIR      71  71 100 S5        29.87F FOG
ROMEOVILLE*    FAIR      72  70  95 S8        29.87F
NORTHERLY ISL    N/A     76  68  76 S12         N/A
$$

LMZ740>746-010700-
SOUTHERN LAKE MICHIGAN

STATION/POSITION SKY/WX   TEMP    WIND        PRES    VSBY  WAVE
                          AIR SEA DIR/SP/G                  HT/PER
                          (F)     (DEG/KT/KT) (MB)    (MI)  (FT/S)
SOUTHERN BUOY              72 70  180/ 12/ 14 1011.0F         1/ 3
WAUKEGAN HARBOR            70     190/ 12/ 13   N/A
HARRISON CRIB              74     180/ 16/ 18   N/A
BURNHAM HARBOR             76     210/  9/ 13   N/A
CALUMET HARBOR             75     190/  5/ 10 1010.8S
MICHIGAN CITY              73     150/  9/ 13   N/A
MICHIGAN CITY 6N           73 73  160/  8/ 10   N/A           1/ 2
ST. JOSEPH                 74 73  160/ 12/ 14   N/A           1/ 2
$$

ILZ025>027-034>036-040-047-049-050-058-095>099-010700-
WEST-CENTRAL ILLINOIS

CITY           SKY/WX    TMP DP  RH WIND       PRES   REMARKS
QUINCY         FAIR      76  69  79 S9        29.84R
GALESBURG*     FAIR      72  71  96 SE6       29.83F
MACOMB*        FAIR      73  71  94 S7        29.84F
JACKSONVILLE*  FAIR      76  73  88 S9        29.86F
PITTSFIELD*    FAIR      74  70  86 S6        29.86F
$$

ILZ028>032-037-038-041>044-048-051>054-059>061-010700-
CENTRAL ILLINOIS

CITY           SKY/WX    TMP DP  RH WIND       PRES   REMARKS
PONTIAC        FAIR      73  72  94 S7        29.88F
DECATUR        FAIR      74  70  87 S9        29.91S
PEORIA         FAIR      75  70  84 S10       29.85F
6HR MIN TEMP:  75; 6HR MAX TEMP:  83;

LACON*         FAIR      73  70  90 S6        29.84F
LINCOLN*       FAIR      74  71  91 S6        29.85S
SPRINGFIELD    FAIR      75  71  87 S8        29.87F
6HR MIN TEMP:  75; 6HR MAX TEMP:  83;

TAYLORVILLE    FAIR      72  70  94 S8        29.89S
$$

ILZ033-039-045-046-055>057-062-063-010700-
EAST-CENTRAL ILLINOIS

CITY           SKY/WX    TMP DP  RH WIND       PRES   REMARKS
CHAMPAIGN      FAIR      72  70  93 S7        29.92F
DANVILLE*      FAIR      72  71  96 S8        29.91S
RANTOUL*       FAIR      72  69  89 SE6       29.92F
MATTOON        FAIR      73  71  93 S9        29.92F
PARIS*         FAIR      72  71  98 S5        29.95S
$$

ILZ079-100>102-010700-
SOUTHWEST ILLINOIS

CITY           SKY/WX    TMP DP  RH WIND       PRES   REMARKS
BELLEVILLE     FAIR      75  75  98 E5        29.89S
CAHOKIA*       FAIR      76  72  87 S5        29.88S
SPARTA*        FAIR      75  72  90 S10G16    29.93S
$$

ILZ064>066-069>071-074>076-080>082-084>086-088>090-092>094-010700-
SOUTH-CENTRAL ILLINOIS

CITY           SKY/WX    TMP DP  RH WIND       PRES   REMARKS
CARBONDALE     FAIR      75  72  90 S9        29.94S
6HR MIN TEMP:  75; 6HR MAX TEMP:  79;

CAIRO*         FAIR      78  73  84 S9        29.96R HX  80
EFFINGHAM*     FAIR      73  69  87 S5        29.93S
MARION         FAIR      77  73  88 S9        29.96S
MT. VERNON     FAIR      73  68  83 S6        29.95R
CENTRALIA*     FAIR      73  70  88 S9        29.92S
SALEM*         FAIR      77  73  88 S10G16    29.93S
METROPOLIS*    FAIR      76  74  95 S6        29.96S
$$

ILZ067-068-072-073-078-083-087-091-010700-
SOUTHEAST ILLINOIS

CITY           SKY/WX    TMP DP  RH WIND       PRES   REMARKS
LAWRENCEVILLE  FAIR      73  72  96 S6        29.96S
FLORA*         FAIR      72  71  95 S7        29.94S
FAIRFIELD*     FAIR      73  72  94 S3        29.94S
HARRISBURG*    FAIR      73  73  98 S5        29.97R
ROBINSON*      MOCLDY    74  73  95 S6        29.96S
CARMI*         FAIR      72  72  98 SE3       29.95S
$$

ABBREVIATIONS USED IN REMARKS
   TC - TEMPERATURE IN CELSIUS
  WCI - WIND CHILL INDEX
   HX - HEAT INDEX
  VSB - VISIBILITY
$$




USA.gov is the U.S. government's official web portal to all federal, state and local government web resources and services.